Regional Weather Roundup
Issued by NWS New Orleans/Baton Rouge, LA

Home | Current Version | Previous Version | Text Only | Print | Product List | Glossary On
Versions: 1 2 3 4 5 6 7 8 9 10 11 12 13 14 15 16 17 18 19 20 21 22 23 24 25 26 27 28 29 30 31 32 33 34 35 36 37 38 39 40 41 42 43 44 45 46 47 48 49 50
145
ASUS44 KLIX 280513
RWRLIX
NEW ORLEANS REGIONAL WEATHER ROUNDUP
NATIONAL WEATHER SERVICE NEW ORLEANS LA
1200 AM CDT TUE MAR 28 2017

NOTE: "FAIR" INDICATES FEW OR NO CLOUDS BELOW 12,000 FEET WITH NO
      SIGNIFICANT WEATHER AND/OR OBSTRUCTIONS TO VISIBILITY.
      SKY/WX - SKY CONDITION AND SIGNIFICANT WEATHER.
      TMP - AIR TEMPERATURE.     DP    - DEWPOINT TEMPERATURE.
      RH  - RELATIVE HUMIDITY.   PRES  - PRESSURE.
      HI  - HEAT INDEX.          WCI   - WIND CHILL INDEX.

*  THESE STATIONS ARE NOT NWS OR FAA STATIONS AND ARE NOT UNDER
   NWS QUALITY CONTROL.

LAZ038-040-048-061>063-065>067-069-280600-
SOUTHEAST LOUISIANA

CITY           SKY/WX    TMP DP  RH WIND       PRES   REMARKS
N.O. INTL ARPT PTCLDY    71  69  93 S8        29.96S
N.O. LAKEFRONT PTCLDY    71  69  93 SE5       29.97S
N.O. DOWNTOWN*   N/A     73  69  87 S7        29.97S
RESERVE*         N/A     72  70  94 S3        29.97R
SLIDELL        PTCLDY    72  69  90 S6        29.96S
BATON ROUGE    CLEAR     71  67  87 SE5       29.96R
BOOTHVILLE     MOCLDY    72  72 100 S10       29.98F
BELLE CHASSE   PTCLDY   N/A N/A N/A S8        29.97S
BOGALUSA*      NOT AVBL
GALLIANO*      PTCLDY    71  68  89 S6        29.97S
NEW ROADS*       N/A     69  67  94 S6        29.95S
GONZALES*        N/A     69  68  96 S3        29.95S
HAMMOND*       MOCLDY    70  64  83 S3        29.97S
HOUMA*         MOCLDY    72  69  91 S8        29.97S
PORT FOURCHON* CLEAR     73  70  88 S12       29.97S

$$

MSZ070-080>082-280600-
SOUTHERN MISSISSIPPI

CITY           SKY/WX    TMP DP  RH WIND       PRES   REMARKS
MCCOMB         CLEAR     65  61  87 S5        29.97R
GULFPORT       MOCLDY    73  70  90 S7        29.97F
BILOXI         CLEAR     72  69  91 SW9       29.97F
PASCAGOULA     MOCLDY    72  67  84 SW3       29.98F

$$

COASTAL OBSERVATIONS
LAKE AND NEARSHORE STATIONS

STATION/POSITION TIME  TEMP    WIND        PRES    WAVE
                       AIR SEA DIR/SP/G            HT/PER
                 (UTC) (F)     (DEG/KT/KT) (MB)    (FT/S)
PASCAGOULA       0448   72     190/ 11/ 14 1014.9
WAVELAND YACHT   0448   73 75  200/  7/ 10 1014.8
GRAND ISLE       0448   73 76  180/  7/ 13 1014.5
SOUTHWEST PASS   0448          170/ 10/ 12   N/A
NEW CANAL        0448   72 72  190/  3/  5 1014.5
SHELL BEACH      0448   72 76  170/  8/ 12 1015.0

OFFSHORE STATIONS

STATION/POSITION TIME  TEMP    WIND        PRES    WAVE
                       AIR SEA DIR/SP/G            HT/PER
                 (UTC) (F)     (DEG/KT/KT) (MB)    (FT/S)
64 S DAUPHIN ISL 0450   73 73  170/ 10/ 14 1015.9    3/ 5

$$





USA.gov is the U.S. government's official web portal to all federal, state and local government web resources and services.